Regional Weather Roundup
Issued by NWS Upton, NY

Home | Current Version | Previous Version | Text Only | Print | Product List | Glossary On
Versions: 1 2 3 4 5 6 7 8 9 10 11 12 13 14 15 16 17 18 19 20 21 22 23 24 25 26 27 28 29 30 31 32 33 34 35 36 37 38 39 40 41 42 43 44 45 46 47 48 49 50
000
ASUS41 KOKX 260808
RWROKX

REGIONAL WEATHER ROUNDUP
NATIONAL WEATHER SERVICE NEW YORK NY
300 AM EST SUN FEB 26 2017

NOTE: "FAIR" INDICATES FEW OR NO CLOUDS BELOW 12,000 FEET WITH NO
SIGNIFICANT WEATHER AND/OR OBSTRUCTIONS TO VISIBILITY.

NYZ071-072-176-178-NJZ106-104-260900-
NEW YORK CITY METRO AREA

CITY           SKY/WX    TMP DP  RH WIND       PRES   REMARKS
Central Park   CLOUDY    41  30  65 W9G20     29.77R
Wall St Helipt NOT AVBL
LaGuardia APRT MOCLDY    44  30  57 NW16G25   29.74R
Kennedy INTL   MOCLDY    44  32  62 NW15      29.76R
Breezy Point     N/A     41 N/A N/A NW12G18     N/A
Newark/Liberty CLOUDY    42  31  64 W15G22    29.76R
Teterboro      CLOUDY    43  29  57 NW12      29.75R
$$

NYZ177-179-078>081-260900-
LONG ISLAND NEW YORK

CITY           SKY/WX    TMP DP  RH WIND       PRES   REMARKS
Jones Beach      N/A     41 N/A N/A NW16G22     N/A
Matinecock PT  NOT AVBL
Farmingdale    CLOUDY    41  27  57 NW17G30   29.73R
MacArthur/ISP  CLEAR     40  28  62 NW21G26   29.71R WCI  30
Shirley        CLEAR     41  32  70 NW13G28   29.71R
Westhampton    CLEAR     40  33  76 NW10      29.70R WCI  33
Southampton    NOT AVBL
Bridgehampton  NOT AVBL
East Hampton     N/A     40  32  74 W8G16     29.67R WCI  34
Montauk          N/A     42  32  67 NW17G25   29.67R
$$

NYZ052-065-067-260900-
HUDSON VALLEY

CITY           SKY/WX    TMP DP  RH WIND       PRES   REMARKS
White Plains   MOCLDY    39  26  59 NW17G26   29.72R WCI  30
Newburgh       NOT AVBL
Montgomery     MOCLDY    37  21  52 W12       29.74R WCI  29
Poughkeepsie   CLEAR     37  22  54 W13       29.74R WCI  29
Albany         CLOUDY    35  24  64 W12G26    29.72R WCI  27
$$

NJZ001-105-106-008-010-013-015-019>022-104-260900-
NEW JERSEY

CITY           SKY/WX    TMP DP  RH WIND       PRES   REMARKS
Newark/Liberty CLOUDY    42  31  64 W15G22    29.76R
Teterboro      CLOUDY    43  29  57 NW12      29.75R
Caldwell       CLOUDY    41  26  55 NW14G23   29.77R
Somerville     CLOUDY    41  27  57 NW10G21   29.77R
Linden         NOT AVBL
Sussex         CLOUDY    37  24  59 NW7G17    29.77R WCI  32
Andover          N/A     36  23  59 NW12G20   29.78R WCI  28
Trenton        CLEAR     39  24  55 W10       29.80R WCI  32
Millville      PTCLDY    40  28  62 W8        29.84R WCI  34
Atlantic City  CLEAR     40  26  57 NW9       29.81R WCI  34
Wrightstown    CLEAR     40  25  55 NW15G22   29.78R WCI  31
Toms River     CLEAR     40  25  55 NW17G30   29.80R WCI  31
Belmar         CLOUDY    41  25  53 W17G25    29.78R
$$

PAZ047>061-062-071-260900-
EASTERN PENNSYLVANIA

CITY           SKY/WX    TMP DP  RH WIND       PRES   REMARKS
Philadelphia   CLEAR     41  22  46 NW20G26   29.85R
Allentown      CLOUDY    38  18  44 NW17G33   29.82R WCI  28
Scranton       CLOUDY    33  22  63 W16G26    29.81R WCI  23
$$

CTZ002-004>006-009-010-012-RIZ004-006-007-MAZ004-011-015-260900-
SOUTHERN NEW ENGLAND
 IN CT

CITY           SKY/WX    TMP DP  RH WIND       PRES   REMARKS
Bradley INTL   PTCLDY    37  25  61 W16G23    29.68R WCI  28
Hartford       CLOUDY    39  27  62 NW10      29.69R WCI  32
Danbury        CLOUDY    38  26  62 NW16G23   29.72R WCI  29
Wtrbury/Oxford CLOUDY    37  23  56 NW8G23    29.70R WCI  31
Bridgeport     MOCLDY    43  32  65 W14G21    29.70R
Meriden        MOCLDY    41  27  57 NW8       29.69R
New Haven      MOCLDY    41  30  65 NW13G20   29.70R
Chester          N/A     39  28  65 NW14G24   29.66R WCI  31
Groton         MOCLDY    41  29  62 NW18G28   29.64R
Wilimantic     CLOUDY    40  28  62 NW13G21   29.66R WCI  32

 IN RI

CITY           SKY/WX    TMP DP  RH WIND       PRES   REMARKS
Providence     CLOUDY    43  33  68 NW16G23   29.60R
Block Island   CLOUDY    41  32  70 NW17G26   29.63R
Westerly       MOCLDY    42  28  57 NW9G23    29.63R
 IN MA

CITY           SKY/WX    TMP DP  RH WIND       PRES   REMARKS
Boston         CLOUDY    43  33  68 W17G28    29.55R
Worcester      CLOUDY    35  24  64 W24G43    29.55R WCI  23
Westfield      CLEAR     37  23  56 NW13G28   29.67R WCI  29
Provincetown   MOCLDY    43  37  79 NW20      29.53R
Nantucket      CLOUDY    45  41  86 NW15      29.51R
$$

ANZ330-335-338-340-345-350-353-355-260900-
COASTAL MARINE OBSERVATIONS


STATION/POSITION TIME  SKY/WX   TEMP    WIND        PRES    VSBY  WAVE
                                AIR SEA DIR/SP/G                  HT/PER
                 (UTC)          (F)     (DEG/KT/KT) (MB)    (MI)  (FT/S)
NY HARB ENTRANCE 0650            43 44  290/ 19/ 25 1005.9          5/ 9
20 S FIRE ISLAND 0750            43 44  310/ 16/ 23 1006.3          6/11
GREAT SOUTH BAY  NOT AVBL
23 SSW MONTAUK P 0650            44 45              1003.6          7/11
15 E BARNEGAT LI 0730               44                N/A           6/11
HUDSON CANYON    0650               47              1004.5          8/11
KINGS POINT      0748            41 41              1007.1
EXECUTION ROCKS  NOT AVBL
CENTRAL LI SOUND 0730            42     280/ 16/ 17   N/A           2/ 3
EASTERN LI SOUND NOT AVBL
ROBBINS REEF     0748            42     310/ 21/ 28 1007.6
$$


>>>>>>>>>>>>>>>>>>>>>>>>>>>> KEY <<<<<<<<<<<<<<<<<<<<<<<<<<<
>                                                          <
>     SKY/WX - Sky Condition/Present Weather               <
>     TMP    - Temperature in Fahrenheit                   <
>     DP     - Dew Point in Fahrenheit                     <
>     RH     - Relative Humidity in Percent                <
>     WIND   - Direction (from) and Speed in MPH           <
>     PRES   - Mean Sea Level Pressure (inches of Hg)      <
>     WCI    - Wind Chill Index                            <
>     VSB    - VISIBILITY IN MILES                         <
>     HX     - HEAT INDEX                                  <
>     TC     - TEMPERATURE IN CELSIUS                      <
>     VRB    - VARIABLE WIND DIRECTION                     <
>                                                          <
>>>>>>>>>>>>>>>>>>>>>>>>>>>> KEY <<<<<<<<<<<<<<<<<<<<<<<<<<<



USA.gov is the U.S. government's official web portal to all federal, state and local government web resources and services.